[[{"header":{"parameterUnit":"m.s-1","parameterCategory":1,"la1":30.2991,"la2":30.254,"lo1":-89.0895,"lo2":-89.0444,"dy":0.0017,"dx":0.0017,"nx":28,"ny":28,"refTime":"2025-04-26T03:00:00:Z","depth":0,"parameterNumber":2,"parameterNumberName":"U-component_of_WINDS"},"data":[0,0,0,0,0,0,0,0,0,0,0,0,0,0,0,0,0,0,0,0,0,0,0,0,0,0,0,0,0,0,0,0,0,0,0,0,0,0,0,0,0,0,0,0,0,0,0,0,0,0,0,0,0,0,0,0,0,0,0.4478,0.448,0,0.4616,0.4618,0.462,0.4682,0.4682,0.4682,0.4681,0.4823,0.4827,0.483,0,0,0,0,0,0,0,0,0,0,0,0,0,0.4267,0.427,0.4478,0.448,0.4482,0.4616,0.4618,0.462,0.4682,0.4682,0.4682,0.4681,0.4822,0.4826,0.4831,0,0,0,0,0,0,0,0,0,0,0,0,0,0.4377,0.4272,0.4478,0.4529,0.4535,0.4616,0.4618,0.462,0.4682,0.4682,0.4681,0.4681,0.482,0.4826,0.4831,0.4872,0,0,0.4849,0.4852,0,0,0,0,0,0,0,0,0.4371,0.4385,0.452,0.4526,0.4532,0.4632,0.4595,0.4705,0.4682,0.4626,0.4681,0.4681,0.4759,0.477,0.4797,0.4879,0.4885,0.485,0.4853,0.4856,0.4858,0,0,0,0,0,0,0,0.4363,0.4379,0.4533,0.4522,0.4529,0.4544,0.456,0.4616,0.4692,0.4631,0.4636,0.4651,0.4763,0.4791,0.48,0.4887,0.485,0.4855,0.4859,0.4861,0.5008,0.5009,0,0,0,0,0,0,0.4347,0.4372,0.4529,0.4537,0.4449,0.4548,0.4566,0.46,0.4692,0.4706,0.4651,0.4654,0.4781,0.4793,0.4806,0.4859,0.4856,0.4861,0.4865,0.5008,0.5008,0.5009,0,0,0,0,0,0,0.4342,0.4361,0.4523,0.4456,0.4478,0.4552,0.459,0.4603,0.4631,0.4707,0.4721,0.4666,0.4781,0.4797,0.4855,0.4865,0.4864,0.4869,0.5007,0.5008,0.5009,0.4966,0,0,0,0,0,0,0.4336,0.4358,0.4375,0.4456,0.4481,0.457,0.4591,0.4606,0.4641,0.4645,0.4725,0.4738,0.4782,0.4846,0.4861,0.4873,0.4874,0.5007,0.5008,0.5008,0.4967,0.4965,0.4964,0,0,0,0,0,0.4328,0.4358,0.4376,0.4394,0.4504,0.4571,0.4585,0.4636,0.4641,0.4659,0.4707,0.4735,0.4861,0.4851,0.4869,0.4882,0.5007,0.5007,0.5008,0.4968,0.4965,0.4964,0,0,0,0,0,0,0.4277,0.437,0.439,0.4447,0.45,0.4581,0.4605,0.4632,0.4685,0.4687,0.4747,0.4765,0.4817,0.4855,0.4843,0.4926,0.4936,0.4941,0.4899,0.4898,0.4896,0.4886,0.4879,0,0,0,0,0,0.4272,0.4319,0.4397,0.444,0.4465,0.453,0.4561,0.4595,0.4653,0.4676,0.4729,0.4784,0.4836,0.4869,0.4921,0.4972,0.499,0.499,0.4989,0.4987,0.499,0.502,0.502,0.5012,0.5012,0.5012,0,0,0.4262,0.4319,0.4345,0.4431,0.4476,0.4523,0.4549,0.4597,0.4633,0.4684,0.4741,0.4781,0.4847,0.4901,0.4928,0.4935,0.4996,0.4988,0.4986,0.4991,0.5021,0.5021,0.5022,0.5012,0.5012,0.5012,0,0,0.4269,0.4317,0.4357,0.4402,0.447,0.4513,0.4522,0.4598,0.4627,0.4685,0.4724,0.4767,0.4855,0.49,0.4934,0.4955,0.4983,0.497,0.4962,0.499,0.4991,0.4991,0.4999,0.5001,0.4973,0.4973,0.4973,0,0.4249,0.4322,0.4374,0.4421,0.4457,0.4504,0.4545,0.4586,0.4667,0.4691,0.4697,0.4808,0.4856,0.4921,0.4926,0.4952,0.4964,0.4962,0.4986,0.4988,0.4989,0.4997,0.5,0.4971,0.4971,0.4972,0.4972,0,0.4293,0.4342,0.4367,0.4444,0.4483,0.4526,0.4584,0.4617,0.4647,0.4688,0.4747,0.4805,0.4869,0.4887,0.4917,0.4956,0.4958,0.4974,0.4986,0.4987,0.4996,0.4999,0.4968,0.4969,0.497,0.497,0,0,0.4273,0.4377,0.4386,0.4421,0.4499,0.4538,0.4582,0.4645,0.4671,0.4725,0.4764,0.4837,0.4852,0.4891,0.4926,0.495,0.4963,0.4964,0.4966,0.4962,0.5009,0.4997,0.4999,0.4981,0.4982,0.4983,0.5004,0,0.4291,0.4374,0.4421,0.4484,0.453,0.4575,0.4614,0.4665,0.4704,0.4749,0.4792,0.4843,0.4859,0.4883,0.4909,0.4956,0.4973,0.4955,0.5018,0.502,0.5001,0.5004,0.4991,0.5009,0.5007,0.5008,0.5008,0,0.4323,0.4376,0.4443,0.4515,0.4536,0.457,0.463,0.4672,0.4731,0.4758,0.48,0.4835,0.4883,0.4889,0.4957,0.4943,0.4971,0.4998,0.5,0.5009,0.5015,0.5013,0.5015,0.5018,0.5014,0.5014,0.5013,0,0.4302,0.4389,0.4441,0.4469,0.4554,0.4577,0.4613,0.4672,0.4706,0.4758,0.4781,0.4838,0.487,0.4913,0.4962,0.4962,0.5024,0.5035,0.5048,0.5047,0.506,0.5059,0.5067,0.5077,0.5077,0.5077,0.5077,0,0.4317,0.4356,0.4432,0.4464,0.4509,0.4563,0.4606,0.4645,0.4697,0.4737,0.4778,0.4815,0.4877,0.4921,0.496,0.5009,0.5023,0.5046,0.5056,0.5043,0.504,0.5063,0.5063,0.5078,0.5077,0.5077,0.5077,0,0.4301,0.4354,0.4413,0.4487,0.4507,0.4537,0.4601,0.4633,0.4674,0.4723,0.4738,0.4802,0.4856,0.4909,0.4981,0.5007,0.5056,0.5069,0.5036,0.5042,0.5052,0.505,0.5077,0.5083,0.5087,0.5087,0.5087,0,0.4308,0.4339,0.4417,0.4446,0.4482,0.4529,0.4563,0.4617,0.4651,0.472,0.4743,0.48,0.4848,0.4932,0.4985,0.504,0.5055,0.506,0.5064,0.5049,0.5056,0.5053,0.5057,0.5059,0.5059,0.5058,0.5058,0,0.4314,0.4338,0.4386,0.4443,0.4483,0.4531,0.458,0.4602,0.4665,0.4701,0.4756,0.4793,0.4866,0.4922,0.4983,0.5021,0.505,0.5056,0.5062,0.505,0.5029,0.5041,0.5032,0.5056,0.5056,0.5056,0.5056,0.5056,0.431,0.4339,0.4399,0.4451,0.4493,0.4537,0.4571,0.4616,0.4662,0.4726,0.4755,0.481,0.4867,0.4952,0.4988,0.5032,0.504,0.5049,0.5051,0.5052,0.5049,0.5021,0.5044,0.5044,0.5044,0.5044,0.5044,0,0.4318,0.4358,0.4406,0.4473,0.4513,0.4536,0.4591,0.4624,0.4672,0.4723,0.4769,0.4832,0.4885,0.4942,0.4999,0.5023,0.5038,0.5036,0.5035,0.5043,0.5039,0.5029,0.5023,0.5023,0.5023,0.5023,0.5023,0.5023,0.4328,0.4379,0.4409,0.4481,0.4521,0.4575,0.4605,0.4646,0.4686,0.4754,0.4799,0.4835,0.4888,0.4949,0.4999,0.5014,0.5033,0.5028,0.5047,0.5042,0.5044,0.5045,0.5035,0.5032,0.5032,0.5048,0.5048,0.5048]},{"header":{"parameterUnit":"m.s-1","parameterCategory":1,"la1":30.2991,"la2":30.254,"lo1":-89.0895,"lo2":-89.0444,"dy":0.0017,"dx":0.0017,"nx":28,"ny":28,"refTime":"2025-04-26T03:00:00:Z","depth":0,"parameterNumber":3,"parameterNumberName":"V-component_of_WINDS"},"data":[0,0,0,0,0,0,0,0,0,0,0,0,0,0,0,0,0,0,0,0,0,0,0,0,0,0,0,0,0,0,0,0,0,0,0,0,0,0,0,0,0,0,0,0,0,0,0,0,0,0,0,0,0,0,0,0,0,0,2.3716,2.3716,0,2.3664,2.3663,2.3663,2.3589,2.3588,2.3587,2.3585,2.3533,2.3532,2.3532,0,0,0,0,0,0,0,0,0,0,0,0,0,2.3753,2.3753,2.3717,2.3716,2.3715,2.3664,2.3663,2.3663,2.3589,2.3588,2.3586,2.3585,2.3533,2.3532,2.3532,0,0,0,0,0,0,0,0,0,0,0,0,0,2.3723,2.3753,2.3717,2.3672,2.3668,2.3664,2.3663,2.3662,2.359,2.3588,2.3586,2.3584,2.3533,2.3532,2.3532,2.3568,0,0,2.3531,2.3531,0,0,0,0,0,0,0,0,2.3725,2.3721,2.368,2.3675,2.367,2.3631,2.3657,2.3631,2.359,2.362,2.3585,2.3583,2.3567,2.3564,2.3558,2.3565,2.3563,2.3531,2.3531,2.3531,2.353,0,0,0,0,0,0,0,2.3727,2.3723,2.3696,2.3679,2.3674,2.3655,2.3649,2.3651,2.3605,2.3617,2.3611,2.3606,2.3564,2.3559,2.3556,2.3562,2.3531,2.3531,2.353,2.353,2.3594,2.3596,0,0,0,0,0,0,2.3735,2.3726,2.3697,2.3694,2.3693,2.3656,2.3649,2.3646,2.3604,2.3596,2.3608,2.3603,2.356,2.3557,2.3554,2.3592,2.3531,2.353,2.353,2.3592,2.3595,2.3597,0,0,0,0,0,0,2.3736,2.3734,2.3699,2.3708,2.3703,2.3657,2.3654,2.3646,2.364,2.3597,2.3589,2.3611,2.3558,2.3555,2.3564,2.3589,2.353,2.353,2.359,2.3593,2.3596,2.367,0,0,0,0,0,0,2.3738,2.3734,2.3748,2.3709,2.3702,2.3711,2.3656,2.3646,2.3639,2.3633,2.3598,2.359,2.3557,2.3565,2.3564,2.3588,2.353,2.3588,2.3591,2.3595,2.3665,2.3675,2.3683,0,0,0,0,0,2.3739,2.3771,2.3749,2.3746,2.3718,2.3713,2.3709,2.3669,2.3642,2.3655,2.3627,2.3591,2.3587,2.3567,2.3565,2.3589,2.3586,2.359,2.3595,2.3661,2.3673,2.3683,0,0,0,0,0,0,2.3814,2.3765,2.374,2.376,2.3741,2.37,2.3715,2.3684,2.3672,2.3666,2.3618,2.3611,2.3626,2.3608,2.3587,2.3621,2.3581,2.3585,2.3632,2.3643,2.3652,2.3656,2.3529,0,0,0,0,0,2.3833,2.3833,2.379,2.3812,2.3803,2.3761,2.3757,2.3728,2.3707,2.3699,2.3672,2.3653,2.3646,2.3644,2.3636,2.3661,2.3653,2.3677,2.3686,2.3694,2.3698,2.371,2.372,2.3611,2.3611,2.3611,0,0,2.3872,2.3845,2.3848,2.3826,2.3808,2.3809,2.3755,2.3758,2.3758,2.3699,2.3707,2.3686,2.3661,2.3679,2.3686,2.3665,2.3726,2.3699,2.3706,2.3706,2.3715,2.3726,2.3735,2.3614,2.3613,2.3613,0,0,2.3943,2.3923,2.3939,2.3921,2.3894,2.3866,2.387,2.3833,2.3817,2.3824,2.3779,2.3778,2.3769,2.3753,2.3744,2.3807,2.3774,2.3806,2.3855,2.3866,2.3875,2.3882,2.3905,2.3913,2.381,2.3811,2.3811,0,2.3995,2.3995,2.3951,2.3957,2.3948,2.3894,2.3909,2.3894,2.3867,2.3862,2.3838,2.3825,2.3804,2.3817,2.3833,2.3827,2.3829,2.381,2.3877,2.3884,2.389,2.3911,2.392,2.3815,2.3814,2.3814,2.3813,0,2.406,2.406,2.4076,2.4049,2.4042,2.4053,2.4011,2.4009,2.398,2.3954,2.3961,2.3934,2.3919,2.392,2.3892,2.3929,2.3917,2.3886,2.3845,2.3905,2.3924,2.3932,2.3821,2.3819,2.3818,2.3817,0,0,2.4178,2.4126,2.4133,2.412,2.4086,2.4085,2.4093,2.4078,2.4077,2.4059,2.4064,2.4057,2.4028,2.4017,2.3987,2.3997,2.4049,2.3965,2.3964,2.3982,2.4087,2.411,2.412,2.4026,2.4027,2.4028,2.4089,0,2.4243,2.4253,2.4214,2.4234,2.4234,2.4181,2.4188,2.4167,2.4143,2.4138,2.4111,2.4106,2.4069,2.4062,2.4069,2.4041,2.4069,2.4036,2.403,2.4031,2.4039,2.413,2.4155,2.4214,2.4096,2.4097,2.4098,0,2.432,2.4306,2.4327,2.429,2.4288,2.4295,2.4278,2.4274,2.4249,2.4231,2.4218,2.4183,2.4187,2.4148,2.4153,2.4131,2.4126,2.4112,2.4113,2.4111,2.4069,2.4131,2.4231,2.424,2.4109,2.4108,2.4107,0,2.4405,2.4391,2.4401,2.4391,2.4349,2.4355,2.4337,2.4311,2.4304,2.4289,2.4284,2.4269,2.4262,2.4251,2.4212,2.4187,2.4222,2.4179,2.4206,2.4207,2.4217,2.4217,2.4318,2.4213,2.4213,2.4213,2.4213,0,2.4482,2.4497,2.4438,2.4445,2.4459,2.4413,2.4428,2.4406,2.4382,2.4383,2.4336,2.4338,2.4287,2.4282,2.4252,2.4261,2.4257,2.4242,2.4234,2.4247,2.4249,2.4243,2.4239,2.4215,2.4215,2.4214,2.4214,0,2.4579,2.454,2.4548,2.4507,2.4497,2.4509,2.4474,2.4478,2.445,2.4451,2.4449,2.4405,2.4397,2.4357,2.4341,2.432,2.4339,2.4323,2.4348,2.4343,2.4372,2.437,2.4474,2.4485,2.4373,2.4374,2.4375,0,2.4631,2.4641,2.46,2.4597,2.4582,2.4578,2.4571,2.4525,2.4519,2.4491,2.4498,2.4487,2.4475,2.4466,2.4432,2.4419,2.4402,2.4439,2.4399,2.4411,2.4402,2.4402,2.4403,2.4448,2.4449,2.445,2.4451,0,2.4727,2.4707,2.4699,2.4683,2.4675,2.4661,2.4644,2.4644,2.4593,2.4589,2.458,2.4571,2.4554,2.4543,2.4523,2.4505,2.447,2.4464,2.4469,2.4483,2.4497,2.4489,2.4371,2.4462,2.4461,2.446,2.4459,2.4459,2.4803,2.4809,2.4782,2.4773,2.4755,2.474,2.4741,2.4713,2.4705,2.4687,2.466,2.4656,2.4629,2.4599,2.4583,2.4579,2.4558,2.4567,2.4569,2.4572,2.4578,2.4497,2.4575,2.4574,2.4574,2.4574,2.4574,0,2.4897,2.4877,2.4869,2.4846,2.4839,2.4806,2.4785,2.4781,2.4777,2.4756,2.4745,2.4735,2.4724,2.4689,2.4674,2.4676,2.466,2.4674,2.4674,2.467,2.4597,2.4594,2.4688,2.4688,2.4688,2.4688,2.4688,2.4688,2.4945,2.4954,2.4931,2.4929,2.4908,2.4903,2.4894,2.4879,2.4861,2.4852,2.4842,2.4819,2.4792,2.4774,2.4762,2.4752,2.4749,2.4769,2.4754,2.4686,2.4675,2.4665,2.4661,2.4768,2.4769,2.4827,2.4827,2.4828]}]]